Torna al catalogo

DELTA 1 DEB

AttivoPO
NORAD 21452·DEBRIS·🇺🇸 United States

Lanciato Jun 12, 1975 da Vandenberg Space Force Base

Loading…

Prossimi Passaggi (prossime 24 ore)

TLE

AggiornatoSource: Space-Track

Epoca: Sep 14, 2026, 10:43 UTC

1 21452U 75052EL  26257.44694769  .00001947  00000-0  82755-2 0  9994
2 21452  99.7488 124.8484 0580284  88.8236  31.4650 12.39714095585877

Traccia DELTA 1 DEB in tempo reale con AllMySat

Download on the App Store